Time,TemperatureF,DewpointF,PressureIn,WindDirection,WindDirectionDegrees,WindSpeedMPH,WindSpeedGustMPH,Humidity,HourlyPrecipIn,Conditions,Clouds,dailyrainin,SoftwareType,DateUTC
2013-05-19 00:00:00,42.9,37.8,30.19,WNW,292,0.0,0.0,82,0.00,,---,0.00,VWS V14.01,2013-05-19 07:00:00,
2013-05-19 00:15:00,41.1,36.6,30.19,WNW,292,0.0,0.0,84,0.00,,---,0.00,VWS V14.01,2013-05-19 07:15:00,
2013-05-19 00:30:00,42.0,37.8,30.20,WNW,292,0.0,0.0,85,0.00,,---,0.00,VWS V14.01,2013-05-19 07:30:00,
2013-05-19 00:45:00,39.5,35.7,30.20,WNW,292,0.0,0.0,86,0.00,,---,0.00,VWS V14.01,2013-05-19 07:45:00,
2013-05-19 01:00:00,39.7,36.7,30.20,WNW,292,0.0,0.0,89,0.00,,---,0.00,VWS V14.01,2013-05-19 08:00:00,
2013-05-19 01:15:00,39.2,36.5,30.20,WNW,292,0.0,0.0,90,0.00,,---,0.00,VWS V14.01,2013-05-19 08:15:00,
2013-05-19 01:30:00,38.9,35.9,30.21,WNW,292,0.0,0.0,89,0.00,,---,0.00,VWS V14.01,2013-05-19 08:30:00,
2013-05-19 01:45:00,38.2,35.8,30.21,WNW,292,0.0,0.0,91,0.00,,---,0.00,VWS V14.01,2013-05-19 08:45:00,
2013-05-19 02:00:00,37.9,35.2,30.21,WNW,292,0.0,0.0,90,0.00,,---,0.00,VWS V14.01,2013-05-19 09:00:00,
2013-05-19 02:15:00,37.7,35.3,30.22,WNW,292,0.0,0.0,91,0.00,,---,0.00,VWS V14.01,2013-05-19 09:15:00,
2013-05-19 02:30:00,37.2,35.1,30.23,WNW,292,0.0,0.0,92,0.00,,---,0.00,VWS V14.01,2013-05-19 09:30:00,
2013-05-19 02:45:00,36.3,34.2,30.23,WNW,292,0.0,0.0,92,0.00,,---,0.00,VWS V14.01,2013-05-19 09:45:00,
2013-05-19 03:00:00,36.3,34.2,30.23,WNW,292,0.0,0.0,92,0.00,,---,0.00,VWS V14.01,2013-05-19 10:00:00,
2013-05-19 03:15:00,36.2,34.4,30.23,WNW,292,0.0,0.0,93,0.00,,---,0.00,VWS V14.01,2013-05-19 10:15:00,
2013-05-19 03:30:00,36.2,34.4,30.23,WNW,292,0.0,0.0,93,0.00,,---,0.00,VWS V14.01,2013-05-19 10:30:00,
2013-05-19 03:45:00,34.8,33.0,30.24,WNW,292,0.0,0.0,93,0.00,,---,0.00,VWS V14.01,2013-05-19 10:45:00,
2013-05-19 04:00:00,34.4,32.6,30.25,WNW,292,0.0,0.0,93,0.00,,---,0.00,VWS V14.01,2013-05-19 11:00:00,
2013-05-19 04:15:00,34.9,33.3,30.25,WNW,292,0.0,0.0,94,0.00,,---,0.00,VWS V14.01,2013-05-19 11:15:00,
2013-05-19 04:30:00,35.2,33.7,30.25,WNW,292,0.0,0.0,94,0.00,,---,0.00,VWS V14.01,2013-05-19 11:30:00,
2013-05-19 04:45:00,36.2,34.6,30.25,WNW,292,0.0,0.0,94,0.00,,---,0.00,VWS V14.01,2013-05-19 11:45:00,
2013-05-19 05:00:00,35.3,33.8,30.26,WNW,292,0.0,0.0,94,0.00,,---,0.00,VWS V14.01,2013-05-19 12:00:00,
2013-05-19 05:15:00,34.1,32.3,30.27,WNW,292,0.0,0.0,93,0.00,,---,0.00,VWS V14.01,2013-05-19 12:15:00,
2013-05-19 05:30:00,33.3,31.5,30.26,WNW,292,0.0,0.0,93,0.00,,---,0.00,VWS V14.01,2013-05-19 12:30:00,
2013-05-19 05:45:00,33.7,32.2,30.27,WNW,292,0.0,0.0,94,0.00,,---,0.00,VWS V14.01,2013-05-19 12:45:00,
2013-05-19 06:00:00,35.4,33.8,30.27,WNW,292,0.0,0.0,94,0.00,,---,0.00,VWS V14.01,2013-05-19 13:00:00,
2013-05-19 06:15:00,33.7,32.2,30.27,WNW,292,0.0,0.0,94,0.00,,---,0.00,VWS V14.01,2013-05-19 13:15:00,
2013-05-19 06:30:00,32.7,31.2,30.27,WNW,292,0.0,0.0,94,0.00,,---,0.00,VWS V14.01,2013-05-19 13:30:00,
2013-05-19 06:45:00,33.3,31.8,30.28,WNW,292,0.0,0.0,94,0.00,,---,0.00,VWS V14.01,2013-05-19 13:45:00,
2013-05-19 07:00:00,33.6,32.1,30.28,WNW,292,0.0,0.0,94,0.00,,---,0.00,VWS V14.01,2013-05-19 14:00:00,
2013-05-19 07:15:00,34.4,32.9,30.29,WNW,292,0.0,0.0,94,0.00,,---,0.00,VWS V14.01,2013-05-19 14:15:00,
2013-05-19 07:30:00,35.7,34.4,30.29,WNW,292,0.0,0.0,95,0.00,,---,0.00,VWS V14.01,2013-05-19 14:30:00,
2013-05-19 07:45:00,37.2,35.9,30.30,WNW,292,0.0,0.0,95,0.00,,---,0.00,VWS V14.01,2013-05-19 14:45:00,
2013-05-19 08:00:00,38.2,36.9,30.30,WNW,292,0.0,0.0,95,0.00,,---,0.00,VWS V14.01,2013-05-19 15:00:00,
2013-05-19 08:15:00,39.2,37.6,30.30,WNW,292,0.0,0.0,94,0.00,,---,0.00,VWS V14.01,2013-05-19 15:15:00,
2013-05-19 08:30:00,40.7,38.8,30.30,WNW,292,0.0,0.0,93,0.00,,---,0.00,VWS V14.01,2013-05-19 15:30:00,
2013-05-19 08:45:00,42.7,40.3,30.30,WNW,292,0.0,0.0,91,0.00,,---,0.00,VWS V14.01,2013-05-19 15:45:00,
2013-05-19 09:00:00,43.9,40.6,30.30,WNW,292,0.0,0.0,88,0.00,,---,0.00,VWS V14.01,2013-05-19 16:00:00,
2013-05-19 09:15:00,44.7,40.5,30.30,WNW,292,0.0,0.0,85,0.00,,---,0.00,VWS V14.01,2013-05-19 16:15:00,
2013-05-19 09:30:00,46.2,39.7,30.30,WNW,292,0.0,0.0,78,0.00,,---,0.00,VWS V14.01,2013-05-19 16:30:00,
2013-05-19 09:45:00,48.3,41.1,30.30,WNW,292,0.0,0.0,76,0.00,,---,0.00,VWS V14.01,2013-05-19 16:45:00,
2013-05-19 10:00:00,49.0,40.0,30.29,WNW,292,0.0,0.0,71,0.00,,---,0.00,VWS V14.01,2013-05-19 17:00:00,
2013-05-19 10:15:00,49.5,41.9,30.29,WNW,292,0.0,0.0,75,0.00,,---,0.00,VWS V14.01,2013-05-19 17:15:00,
2013-05-19 10:30:00,50.4,41.0,30.29,WNW,292,0.0,0.0,70,0.00,,---,0.00,VWS V14.01,2013-05-19 17:30:00,
2013-05-19 10:45:00,51.3,41.9,30.29,WNW,292,0.0,0.0,70,0.00,,---,0.00,VWS V14.01,2013-05-19 17:45:00,
2013-05-19 11:00:00,51.6,41.4,30.28,WNW,292,0.0,0.0,68,0.00,,---,0.00,VWS V14.01,2013-05-19 18:00:00,
2013-05-19 11:15:00,52.9,42.6,30.28,WNW,292,0.0,0.0,68,0.00,,---,0.00,VWS V14.01,2013-05-19 18:15:00,
2013-05-19 11:30:00,54.0,43.3,30.27,SSW,202,0.0,6.0,67,0.00,,---,0.00,VWS V14.01,2013-05-19 18:30:00,
2013-05-19 11:45:00,54.8,42.9,30.26,SSW,202,1.0,6.0,64,0.00,,---,0.00,VWS V14.01,2013-05-19 18:45:00,
2013-05-19 12:00:00,55.5,41.0,30.26,SSW,202,3.0,10.0,58,0.00,,---,0.00,VWS V14.01,2013-05-19 19:00:00,
2013-05-19 12:15:00,56.5,42.4,30.25,SW,225,5.0,12.0,59,0.00,,---,0.00,VWS V14.01,2013-05-19 19:15:00,
2013-05-19 12:30:00,56.0,40.5,30.25,West,270,5.0,23.0,56,0.00,,---,0.00,VWS V14.01,2013-05-19 19:30:00,
2013-05-19 12:45:00,56.8,41.8,30.25,West,270,5.0,12.0,57,0.00,,---,0.00,VWS V14.01,2013-05-19 19:45:00,
2013-05-19 13:00:00,56.6,40.2,30.25,West,270,5.0,12.0,54,0.00,,---,0.00,VWS V14.01,2013-05-19 20:00:00,
2013-05-19 13:15:00,56.9,39.0,30.24,West,270,4.0,15.0,51,0.00,,---,0.00,VWS V14.01,2013-05-19 20:15:00,
2013-05-19 13:30:00,58.0,42.4,30.24,West,270,2.0,9.0,56,0.00,,---,0.00,VWS V14.01,2013-05-19 20:30:00,
2013-05-19 13:45:00,59.0,40.4,30.23,WNW,292,4.0,16.0,50,0.00,,---,0.00,VWS V14.01,2013-05-19 20:45:00,
2013-05-19 14:00:00,59.0,42.9,30.23,WNW,292,6.0,15.0,55,0.00,,---,0.00,VWS V14.01,2013-05-19 21:00:00,
2013-05-19 14:15:00,59.0,39.4,30.22,West,270,5.0,13.0,48,0.00,,---,0.00,VWS V14.01,2013-05-19 21:15:00,
2013-05-19 14:30:00,59.1,38.4,30.22,West,270,4.0,13.0,46,0.00,,---,0.00,VWS V14.01,2013-05-19 21:30:00,
2013-05-19 14:45:00,59.6,38.3,30.22,WNW,292,3.0,11.0,45,0.00,,---,0.00,VWS V14.01,2013-05-19 21:45:00,
2013-05-19 15:00:00,60.3,40.5,30.22,NW,315,6.0,15.0,48,0.00,,---,0.00,VWS V14.01,2013-05-19 22:00:00,
2013-05-19 15:15:00,60.7,39.8,30.22,WNW,292,8.0,18.0,46,0.00,,---,0.00,VWS V14.01,2013-05-19 22:15:00,
2013-05-19 15:30:00,60.4,41.7,30.22,NW,315,7.0,18.0,50,0.00,,---,0.00,VWS V14.01,2013-05-19 22:30:00,
2013-05-19 15:45:00,61.4,42.1,30.22,NW,315,7.0,16.0,49,0.00,,---,0.00,VWS V14.01,2013-05-19 22:45:00,
2013-05-19 16:00:00,60.0,39.7,30.22,West,270,8.0,19.0,47,0.00,,---,0.00,VWS V14.01,2013-05-19 23:00:00,
2013-05-19 16:15:00,60.2,38.8,30.22,WNW,292,10.0,19.0,45,0.00,,---,0.00,VWS V14.01,2013-05-19 23:15:00,
2013-05-19 16:30:00,60.1,40.4,30.22,NW,315,11.0,18.0,48,0.00,,---,0.00,VWS V14.01,2013-05-19 23:30:00,
2013-05-19 16:45:00,59.9,38.5,30.22,NW,315,10.0,18.0,45,0.00,,---,0.00,VWS V14.01,2013-05-19 23:45:00,
2013-05-19 17:00:00,61.0,39.5,30.21,WNW,292,11.0,21.0,45,0.00,,---,0.00,VWS V14.01,2013-05-20 00:00:00,
2013-05-19 17:15:00,60.6,39.2,30.21,WNW,292,8.0,16.0,45,0.00,,---,0.00,VWS V14.01,2013-05-20 00:15:00,
2013-05-19 17:30:00,60.9,37.7,30.21,WNW,292,7.0,14.0,42,0.00,,---,0.00,VWS V14.01,2013-05-20 00:30:00,
2013-05-19 17:45:00,61.1,37.9,30.21,WNW,292,8.0,16.0,42,0.00,,---,0.00,VWS V14.01,2013-05-20 00:45:00,
2013-05-19 18:00:00,61.0,37.8,30.20,WNW,292,7.0,17.0,42,0.00,,---,0.00,VWS V14.01,2013-05-20 01:00:00,
2013-05-19 18:15:00,60.7,37.5,30.20,West,270,9.0,17.0,42,0.00,,---,0.00,VWS V14.01,2013-05-20 01:15:00,
2013-05-19 18:30:00,60.7,38.1,30.20,West,270,8.0,14.0,43,0.00,,---,0.00,VWS V14.01,2013-05-20 01:30:00,
2013-05-19 18:45:00,60.3,38.9,30.20,West,270,7.0,14.0,45,0.00,,---,0.00,VWS V14.01,2013-05-20 01:45:00,
2013-05-19 19:00:00,59.5,39.3,30.20,West,270,6.0,14.0,47,0.00,,---,0.00,VWS V14.01,2013-05-20 02:00:00,
2013-05-19 19:15:00,58.7,38.5,30.21,West,270,6.0,13.0,47,0.00,,---,0.00,VWS V14.01,2013-05-20 02:15:00,
2013-05-19 19:30:00,57.6,38.1,30.21,West,270,8.0,16.0,48,0.00,,---,0.00,VWS V14.01,2013-05-20 02:30:00,
2013-05-19 19:45:00,56.5,38.1,30.21,West,270,5.0,14.0,50,0.00,,---,0.00,VWS V14.01,2013-05-20 02:45:00,
2013-05-19 20:00:00,54.6,37.3,30.22,WSW,248,2.0,8.0,52,0.00,,---,0.00,VWS V14.01,2013-05-20 03:00:00,
2013-05-19 20:15:00,53.8,37.1,30.22,WSW,248,3.0,8.0,53,0.00,,---,0.00,VWS V14.01,2013-05-20 03:15:00,
2013-05-19 20:30:00,52.8,36.6,30.21,WSW,248,4.0,10.0,54,0.00,,---,0.00,VWS V14.01,2013-05-20 03:30:00,
2013-05-19 20:45:00,51.5,36.8,30.22,WNW,292,3.0,10.0,57,0.00,,---,0.00,VWS V14.01,2013-05-20 03:45:00,
2013-05-19 21:00:00,50.8,36.6,30.22,WNW,292,1.0,9.0,58,0.00,,---,0.00,VWS V14.01,2013-05-20 04:00:00,
2013-05-19 21:15:00,51.5,36.8,30.22,WNW,292,6.0,15.0,57,0.00,,---,0.00,VWS V14.01,2013-05-20 04:15:00,
2013-05-19 21:30:00,51.2,36.5,30.23,NW,315,4.0,11.0,57,0.00,,---,0.00,VWS V14.01,2013-05-20 04:30:00,
2013-05-19 21:45:00,49.6,36.3,30.23,NW,315,0.0,5.0,60,0.00,,---,0.00,VWS V14.01,2013-05-20 04:45:00,
2013-05-19 22:00:00,50.0,37.1,30.24,NNW,338,3.0,10.0,61,0.00,,---,0.00,VWS V14.01,2013-05-20 05:00:00,
2013-05-19 22:15:00,50.3,37.0,30.24,NNW,338,7.0,13.0,60,0.00,,---,0.00,VWS V14.01,2013-05-20 05:15:00,
2013-05-19 22:30:00,49.2,37.2,30.24,NW,315,7.0,13.0,63,0.00,,---,0.00,VWS V14.01,2013-05-20 05:30:00,
2013-05-19 22:45:00,48.5,36.9,30.23,NW,315,4.0,9.0,64,0.00,,---,0.00,VWS V14.01,2013-05-20 05:45:00,
2013-05-19 23:00:00,48.6,37.0,30.24,NNW,338,3.0,7.0,64,0.00,,---,0.00,VWS V14.01,2013-05-20 06:00:00,
2013-05-19 23:15:00,46.9,36.5,30.24,NW,315,2.0,6.0,67,0.00,,---,0.00,VWS V14.01,2013-05-20 06:15:00,
2013-05-19 23:30:00,45.6,36.4,30.24,NW,315,0.0,0.0,70,0.00,,---,0.00,VWS V14.01,2013-05-20 06:30:00,
2013-05-19 23:45:00,43.6,36.5,30.24,ESE,112,1.0,7.0,76,0.00,,---,0.00,VWS V14.01,2013-05-20 06:45:00,